ILAIGU24 Weather Reports


time (UTC)temp
C
wind
direction
speed
KPH
gust
KPH
rain 1hr
cm
rain 24hr
cm
rain mn
cm
humidity
%
barometer
mb
20260508014512 14 248 3.2 4.8 0.00 0.00 0.00 85 1013.8
20260508013008 14 248 3.2 6.4 0.00 0.00 0.00 85 1014.0
20260508011513 14 254 3.2 6.4 0.00 0.00 0.00 87 1014.1
20260508010032 14 250 4.8 9.7 0.00 0.00 0.00 88 1014.2
20260508004515 13 247 3.2 4.8 0.00 0.00 0.00 89 1014.5
20260508003011 13 247 0.0 4.8 0.00 0.00 0.00 89 1014.7
20260508001514 13 254 3.2 6.4 0.00 0.00 0.00 89 1014.9
20260508000016 13 251 1.6 4.8 0.00 0.00 0.00 89 1015.1
20260507234523 13 251 3.2 4.8 0.00 0.00 0.00 89 1015.1
20260507233024 14 251 3.2 6.4 0.00 0.00 0.00 89 1015.3
20260507231520 14 248 3.2 6.4 0.00 0.00 0.00 89 1015.5
20260507230027 14 255 3.2 6.4 0.00 0.00 0.00 88 1015.6
20260507224513 14 250 3.2 4.8 0.00 0.00 0.00 88 1015.7
20260507223042 15 250 3.2 4.8 0.00 0.00 0.00 88 1015.7
20260507221506 15 250 1.6 4.8 0.00 0.00 0.00 88 1015.6
20260507220008 15 250 3.2 6.4 0.00 0.00 0.00 88 1015.6
20260507214513 15 250 3.2 4.8 0.00 0.00 0.00 88 1015.5
20260507213022 15 250 3.2 4.8 0.00 0.00 0.00 88 1015.4
20260507211518 14 250 3.2 4.8 0.00 0.00 0.00 88 1015.3
20260507210017 14 250 3.2 4.8 0.00 0.00 0.00 88 1015.2
20260507204511 14 250 3.2 6.4 0.00 0.00 0.00 87 1015.2
20260507203028 15 250 3.2 6.4 0.00 0.00 0.00 87 1015.3
20260507201519 15 250 3.2 6.4 0.00 0.00 0.00 87 1015.3
20260507200046 15 250 3.2 6.4 0.00 0.00 0.00 86 1015.2
20260507194520 15 244 3.2 6.4 0.00 0.00 0.00 86 1015.0
20260507193037 15 254 3.2 6.4 0.00 0.00 0.00 85 1014.9
20260507191518 15 247 3.2 6.4 0.00 0.00 0.00 85 1014.7
20260507190033 15 247 3.2 6.4 0.00 0.00 0.00 84 1014.5
20260507184525 15 249 3.2 6.4 0.00 0.00 0.00 84 1014.6
20260507183035 16 246 0.0 0.0 0.00 0.00 0.00 82 1014.6
20260507181520 16 246 0.0 1.6 0.00 0.00 0.00 81 1014.6
20260507180019 16 246 0.0 0.0 0.00 0.00 0.00 79 1014.5
20260507174524 17 246 0.0 4.8 0.00 0.00 0.00 78 1014.3
20260507173028 17 246 0.0 3.2 0.00 0.00 0.00 75 1014.3
20260507171525 18 239 0.0 0.0 0.00 0.00 0.00 73 1014.4
20260507170027 18 124 0.0 0.0 0.00 0.00 0.00 72 1014.4
20260507164518 18 124 0.0 0.0 0.00 0.00 0.00 72 1014.4
20260507163024 18 71 0.0 1.6 0.00 0.00 0.00 71 1014.4
20260507161519 18 136 0.0 0.0 0.00 0.00 0.00 71 1014.3
20260507160012 18 81 0.0 0.0 0.00 0.00 0.00 73 1014.3
20260507154516 18 75 0.0 0.0 0.00 0.00 0.00 73 1014.3
20260507153004 18 94 0.0 1.6 0.00 0.00 0.00 73 1014.2
20260507151505 18 105 0.0 3.2 0.00 0.00 0.00 74 1014.3
20260507150007 18 52 1.6 6.4 0.00 0.00 0.00 75 1014.4
20260507144504 18 119 0.0 9.7 0.00 0.00 0.00 75 1014.4
20260507143018 18 113 0.0 1.6 0.00 0.00 0.00 74 1014.4
20260507141505 18 117 1.6 9.7 0.00 0.00 0.00 73 1014.5
20260507140008 18 166 3.2 9.7 0.00 0.00 0.00 73 1014.5
20260507134510 19 118 3.2 9.7 0.00 0.00 0.00 73 1014.6
20260507133010 19 125 1.6 4.8 0.00 0.00 0.00 74 1014.9
20260507131513 19 102 0.0 11.3 0.00 0.00 0.00 73 1015.1
20260507130005 20 124 3.2 9.7 0.00 0.00 0.00 70 1014.9
20260507124507 20 148 4.8 9.7 0.00 0.00 0.00 71 1014.9
20260507123013 20 125 4.8 11.3 0.00 0.00 0.00 71 1014.7
20260507121516 19 97 4.8 11.3 0.00 0.00 0.00 70 1014.6
20260507120010 19 122 0.0 8.0 0.00 0.00 0.00 70 1014.5
20260507114506 20 113 1.6 9.7 0.00 0.00 0.00 70 1014.6
20260507113019 20 126 1.6 9.7 0.00 0.00 0.00 70 1014.8
20260507111533 20 109 3.2 9.7 0.00 0.00 0.00 71 1014.9
20260507110025 19 107 3.2 11.3 0.00 0.00 0.00 72 1014.9
20260507104518 20 126 3.2 9.7 0.00 0.00 0.00 70 1014.9
20260507103013 20 121 3.2 9.7 0.00 0.00 0.00 70 1014.9
20260507101512 20 121 3.2 9.7 0.00 0.00 0.00 71 1015.0
20260507100010 20 120 4.8 9.7 0.00 0.00 0.00 70 1015.0
20260507094505 20 80 3.2 11.3 0.00 0.00 0.00 70 1014.9
20260507093006 20 98 3.2 11.3 0.00 0.00 0.00 68 1014.6
20260507091510 20 113 4.8 6.4 0.00 0.00 0.00 69 1014.6
20260507090013 19 115 3.2 6.4 0.00 0.00 0.00 69 1014.4
20260507084514 19 117 3.2 6.4 0.00 0.00 0.00 70 1014.4
20260507083013 19 118 3.2 4.8 0.00 0.00 0.00 69 1014.1
20260507081508 18 94 3.2 9.7 0.00 0.00 0.00 70 1014.1
20260507080013 18 124 0.0 6.4 0.00 0.00 0.00 71 1014.1
20260507074516 18 123 1.6 9.7 0.00 0.00 0.00 72 1014.1
20260507073031 18 128 3.2 6.4 0.00 0.00 0.00 73 1013.9
20260507071521 17 119 3.2 6.4 0.00 0.00 0.00 74 1013.8
20260507070012 17 129 0.0 6.4 0.00 0.00 0.00 75 1013.8
20260507064522 17 115 3.2 9.7 0.00 0.00 0.00 75 1013.7
20260507063024 17 121 4.8 11.3 0.00 0.00 0.00 76 1013.4
20260507061526 17 120 3.2 6.4 0.00 0.00 0.00 76 1013.3
20260507060028 16 100 0.0 4.8 0.00 0.00 0.00 79 1013.3
20260507054526 15 246 0.0 4.8 0.00 0.00 0.00 82 1013.2
20260507053020 15 245 0.0 4.8 0.00 0.00 0.00 85 1013.0
20260507051520 14 245 1.6 6.4 0.00 0.00 0.00 86 1012.7
20260507050033 13 238 1.6 9.7 0.00 0.00 0.00 89 1012.6
20260507044535 13 257 1.6 4.8 0.00 0.00 0.00 89 1012.6
20260507043028 13 257 1.6 4.8 0.00 0.05 0.00 89 1012.4
20260507041528 13 257 3.2 6.4 0.00 0.18 0.00 89 1012.4
20260507040005 13 257 1.6 6.4 0.00 0.23 0.00 89 1012.4
20260507034504 13 257 3.2 6.4 0.00 0.23 0.00 89 1012.2
20260507033004 13 257 3.2 6.4 0.00 0.23 0.00 89 1012.1
20260507031503 13 242 3.2 8.0 0.00 0.23 0.00 89 1012.1
20260507030004 12 242 3.2 6.4 0.00 0.23 0.00 89 1012.1
20260507024504 12 242 3.2 6.4 0.00 0.25 0.00 89 1012.0
20260507023004 12 242 3.2 6.4 0.00 0.25 0.00 89 1012.0
20260507021503 12 242 3.2 6.4 0.00 0.25 0.00 89 1012.0
20260507020005 12 242 3.2 6.4 0.00 0.25 0.00 89 1011.9